星链-32166 (STARLINK-32166)

导读 | 星芒AI

STARLINK-32166 是 SpaceX Starlink 卫星互联网项目中的一颗低轨卫星。它属于 Starlink 群体部署计划的一部分,旨在为全球用户提供高速、低延迟的宽带互联网服务。该卫星运行在约 550 公里的轨道高度,采用可控制设计以减少太空碎片风险。作为 Starlink 网络的节点,它通过与其他卫星和地面站通信,实现全球覆盖,尤其服务于传统网络难以到达的地区。

基本信息
目录编号:
60257
目录名称:
STARLINK-32166
国际标识:
2024-131C
轨道中心:
EARTH
卫星名称:
星链-32166 (STARLINK-32166)
卫星全名:
星链-32166 (STARLINK-32166)
卫星状态:
在轨 (已飞行511 天)
发射日期:
2024-07-27 UTC
国别 :
美国 (US)
星等 :
--
轨道信息
数据来源 国际轨道数据
星历时间: 2025-12-19T17:59:26+0800
21小时前
查看轨道信息
半长轴: 6853.408km
偏心率: 0.0001383
轨道倾角: 53.161°
近地点辐角 95.992°
升交点赤经 65.632°
平近点角 264.124°
近地点: 474.323km
远地点: 476.219km
周期: 94.106分钟
每日圈数: 15.301816
详细信息
卫星平台:
Starlink v2.0 mini
运营商:
太空探索技术公司
运营商所在国:
美国
制造商(研发单位):
太空探索技术公司
制造商所在国:
美国
使用方式:
暂无
卫星简介
星链(Starlink)计划是由太空探索技术公司(SpaceX)提出的一个巨型低轨卫星互联网星座项目,计划在2019年至2024年间在太空搭建由约1.2万颗卫星组成的“星链”网络,其中1584颗将部署在地球上空550千米处的近地轨道,并从2020年开始工作。该卫星仍在工作。
2D轨道图
3D轨道图
轨道高度分析图
轨道倾角分析图
轨道综合分析图
查看轨道综合分析图